Location: *
(52.2090°N, 4.1550°W)
Time: 02:31:24
(UTC+00:00)

Cosmos 1500 Rocket - Visible Passes

Search period start: 19 October 2019 00:00
Search period end: 29 October 2019 00:00
Orbit: 604 x 630 km, 82.5° (Epoch: 18 October)

Date Brightness Start Highest point End Pass type
(mag) Time Alt. Az. Time Alt. Az. Time Alt. Az.
19 Oct 5.6 19:54:46 10° N 19:56:06 18° NNE 19:56:06 18° NNE visible
19 Oct 6.6 21:32:39 10° NNW 21:33:13 13° NNW 21:33:13 13° NNW visible
20 Oct 5.6 20:11:24 10° N 20:12:55 20° N 20:12:55 20° N visible
20 Oct 6.8 21:49:58 10° NW 21:50:02 10° NW 21:50:02 10° NW visible
21 Oct 5.7 18:51:45 10° NNE 18:52:37 12° NE 18:52:37 12° NE visible
21 Oct 5.7 20:28:11 10° N 20:29:45 21° N 20:29:45 21° N visible
22 Oct 5.4 19:07:50 10° NNE 19:09:28 17° NNE 19:09:28 17° NNE visible
22 Oct 5.9 20:45:06 10° NNW 20:46:36 20° NNW 20:46:36 20° NNW visible
23 Oct 5.2 19:24:18 10° N 19:26:21 23° NNE 19:26:21 23° NNE visible
23 Oct 6.2 21:02:10 10° NNW 21:03:29 18° NW 21:03:29 18° NW visible
24 Oct 4.9 19:40:55 10° N 19:43:15 29° N 19:43:15 29° N visible
24 Oct 6.5 21:19:29 10° NW 21:20:23 14° NW 21:20:23 14° NW visible
25 Oct 5.4 18:21:16 10° NNE 18:23:04 14° NE 18:23:04 14° NE visible
25 Oct 4.9 19:57:42 10° N 20:00:12 33° N 20:00:12 33° N visible
26 Oct 5.0 18:37:21 10° NNE 18:40:03 20° NE 18:40:03 20° NE visible
26 Oct 5.1 20:14:37 10° NNW 20:17:11 32° NNW 20:17:11 32° NNW visible
27 Oct 4.5 18:53:48 10° N 18:57:06 31° NE 18:57:06 31° NE visible
27 Oct 5.6 20:31:41 10° NNW 20:34:14 26° NW 20:34:14 26° NW visible
28 Oct 3.9 19:10:26 10° N 19:14:12 49° NE 19:14:12 49° NE visible
28 Oct 6.1 20:49:00 10° NW 20:51:21 19° WNW 20:51:21 19° WNW visible
